Location: Newark
(44.4156°N, 12.1972°E)
Time: 10:05:28
(UTC+00:00)

STARLINK-1095 - Pass Details

Date: 30 January 2020
Orbit: 348 x 351 km, 53.0° (Epoch: 22 February)

Event Time Altitude Azimuth Distance (km) Brightness Sun altitude
Rises 18:00:57 0° 303° (WNW) 2,178 7.5 -18.7°
Reaches altitude 10° 18:02:58 10° 302° (WNW) 1,331 6.3 -19.0°
Enters shadow 18:05:43 73° 273° (W) 376 2.8 -19.5°
